Location: Unspecified
(8.3053°N, 0.0000°E)
Time: 18:55:50
(UTC+00:00)

CZ-6A DEB - Visible Passes

Search period start: 04 April 2026 00:00
Search period end: 14 April 2026 00:00
Orbit: 786 x 844 km, 89.0° (Epoch: 28 March)

Date Brightness Start Highest point End Pass type
(mag) Time Alt. Az. Time Alt. Az. Time Alt. Az.
4 Apr ? 05:13:04 10° SE 05:17:25 26° E 05:21:43 10° NNE visible
5 Apr ? 04:52:01 10° ESE 04:55:06 16° E 04:58:08 10° NE visible
5 Apr ? 19:08:56 10° WNW 19:10:09 11° W 19:11:22 10° W visible
6 Apr ? 18:44:12 10° NW 18:47:50 19° W 18:51:32 10° SW visible
8 Apr ? 05:23:36 10° SSE 05:28:48 58° E 05:33:57 10° N visible
9 Apr ? 05:01:41 10° SSE 05:06:27 34° E 05:11:10 10° NNE visible
10 Apr ? 04:40:12 10° SE 04:44:06 21° E 04:47:58 10° NE visible
11 Apr ? 04:19:39 10° ESE 04:21:46 12° E 04:23:52 10° ENE visible
11 Apr ? 18:34:14 10° NW 18:36:51 14° W 18:39:30 10° WSW visible
13 Apr ? 05:12:31 10° S 05:17:48 79° E 05:23:01 10° N visible
